IGO547 VAPO-VAAH

Flight info

Callsign IGO547
Flight time N/A
Altitude 36000
Route DOGAP2A DOGAP DCT AKTIV DCT ISRIS/N0432F350 Z1 APANO APANO1A
Aircraft A20N/M-SDE2E3FGHIRWXY/LB1

Departure

Time 2026-04-20 14:27
Airport Pune International Airport (VAPO)

Arrival

Time N/A
Airport Sardar Vallabh Patel International Airport (VAAH)
Time Latitude Longitude Altitude Speed Heading
2026-04-20 14:12 18.58011 73.90838 1923 ft 0 kts 189°
2026-04-20 14:15 18.58023 73.90840 1921 ft 2 kts 189°
2026-04-20 14:16 18.58039 73.90843 1921 ft 2 kts 189°
2026-04-20 14:16 18.58055 73.90846 1921 ft 2 kts 189°
2026-04-20 14:16 18.58066 73.90855 1921 ft 2 kts 283°
2026-04-20 14:16 18.58065 73.90858 1921 ft 0 kts 279°
2026-04-20 14:17 18.58070 73.90830 1920 ft 7 kts 280°
2026-04-20 14:18 18.58080 73.90786 1921 ft 5 kts 300°
2026-04-20 14:18 18.58094 73.90775 1921 ft 2 kts 335°
2026-04-20 14:18 18.58103 73.90772 1921 ft 1 kts 347°
2026-04-20 14:18 18.58124 73.90774 1921 ft 6 kts
2026-04-20 14:19 18.58138 73.90792 1921 ft 10 kts 80°
2026-04-20 14:19 18.58135 73.90869 1921 ft 11 kts 93°
2026-04-20 14:19 18.58131 73.90951 1921 ft 12 kts 93°
2026-04-20 14:19 18.58126 73.91041 1921 ft 13 kts 93°
2026-04-20 14:20 18.58120 73.91140 1921 ft 14 kts 93°
2026-04-20 14:20 18.58114 73.91248 1921 ft 15 kts 93°
2026-04-20 14:20 18.58108 73.91364 1921 ft 17 kts 93°
2026-04-20 14:20 18.58101 73.91490 1921 ft 18 kts 93°
2026-04-20 14:21 18.58093 73.91625 1921 ft 19 kts 93°
2026-04-20 14:21 18.58085 73.91770 1921 ft 20 kts 93°
2026-04-20 14:21 18.58071 73.91920 1922 ft 21 kts 95°
2026-04-20 14:21 18.58068 73.91959 1922 ft 1 kts 95°
2026-04-20 14:22 18.58068 73.91970 1922 ft 1 kts 83°
2026-04-20 14:22 18.58069 73.92020 1921 ft 12 kts 112°
2026-04-20 14:22 18.58057 73.92107 1921 ft 12 kts 93°
2026-04-20 14:22 18.58052 73.92201 1921 ft 13 kts 93°
2026-04-20 14:23 18.58046 73.92304 1921 ft 15 kts 93°
2026-04-20 14:23 18.58039 73.92416 1921 ft 16 kts 94°
2026-04-20 14:23 18.58032 73.92536 1921 ft 17 kts 94°
2026-04-20 14:23 18.58024 73.92666 1921 ft 18 kts 94°
2026-04-20 14:24 18.58015 73.92806 1921 ft 20 kts 94°
2026-04-20 14:24 18.58007 73.92935 1921 ft 15 kts 94°
2026-04-20 14:24 18.58006 73.92978 1921 ft 1 kts 76°
2026-04-20 14:24 18.58039 73.93002 1921 ft 9 kts
2026-04-20 14:25 18.58105 73.93007 1921 ft 10 kts
2026-04-20 14:25 18.58164 73.92988 1921 ft 6 kts 301°
2026-04-20 14:25 18.58167 73.92968 1921 ft 0 kts 276°
2026-04-20 14:26 18.58167 73.92966 1920 ft 1 kts 276°
2026-04-20 14:26 18.58168 73.92961 1920 ft 1 kts 276°
2026-04-20 14:26 18.58169 73.92946 1923 ft 9 kts 276°
2026-04-20 14:26 18.58191 73.92570 1921 ft 98 kts 274°
2026-04-20 14:27 18.58258 73.91521 2044 ft 175 kts 274°
2026-04-20 14:27 18.58337 73.90172 2853 ft 191 kts 274°
2026-04-20 14:27 18.58452 73.88733 3611 ft 210 kts 277°
2026-04-20 14:27 18.58634 73.87048 4045 ft 249 kts 277°
2026-04-20 14:28 18.58834 73.85123 4450 ft 281 kts 276°
2026-04-20 14:28 18.59075 73.83044 5454 ft 281 kts 283°
2026-04-20 14:28 18.59956 73.81270 6457 ft 282 kts 315°
2026-04-20 14:28 18.61584 73.80136 7398 ft 284 kts 336°
2026-04-20 14:29 18.63417 73.79297 8392 ft 288 kts 341°
2026-04-20 14:29 18.65204 73.78309 9432 ft 296 kts 321°
2026-04-20 14:29 18.66392 73.76513 10319 ft 310 kts 293°
2026-04-20 14:29 18.67055 73.74281 10976 ft 326 kts 286°
2026-04-20 14:30 18.67732 73.71965 11814 ft 334 kts 289°
2026-04-20 14:30 18.68547 73.69657 12805 ft 337 kts 292°
2026-04-20 14:30 18.69454 73.67367 13878 ft 340 kts 294°
2026-04-20 14:30 18.70416 73.65087 14910 ft 341 kts 294°
2026-04-20 14:31 18.71411 73.62806 15950 ft 343 kts 295°
2026-04-20 14:31 18.72423 73.60525 16948 ft 345 kts 295°
2026-04-20 14:31 18.73455 73.58220 17901 ft 350 kts 295°
2026-04-20 14:31 18.74506 73.55885 18716 ft 355 kts 295°
2026-04-20 14:32 18.75576 73.53512 19498 ft 360 kts 294°
2026-04-20 14:32 18.76659 73.51112 20318 ft 364 kts 294°
2026-04-20 14:32 18.77754 73.48686 21168 ft 368 kts 293°
2026-04-20 14:32 18.78858 73.46241 22011 ft 371 kts 293°
2026-04-20 14:33 18.79975 73.43763 22827 ft 375 kts 292°
2026-04-20 14:33 18.80985 73.41220 23575 ft 379 kts 291°
2026-04-20 14:33 18.82523 73.38916 24202 ft 393 kts 312°
2026-04-20 14:33 18.84817 73.37283 24832 ft 407 kts 332°
2026-04-20 14:34 18.87594 73.36529 25423 ft 421 kts 352°
2026-04-20 14:34 18.90544 73.36766 26015 ft 432 kts 10°
2026-04-20 14:34 18.93460 73.37628 26575 ft 438 kts 14°
2026-04-20 14:34 18.96420 73.38458 27118 ft 442 kts
2026-04-20 14:35 18.99460 73.38980 27639 ft 444 kts
2026-04-20 14:35 19.02549 73.39158 28146 ft 446 kts 357°
2026-04-20 14:35 19.05618 73.39066 28641 ft 448 kts 353°
2026-04-20 14:35 19.08734 73.38801 29120 ft 451 kts 351°
2026-04-20 14:36 19.11868 73.38443 29602 ft 455 kts 349°
2026-04-20 14:36 19.15021 73.38051 30137 ft 456 kts 349°
2026-04-20 14:36 19.18172 73.37658 30700 ft 456 kts 349°
2026-04-20 14:36 19.21320 73.37279 31233 ft 456 kts 349°
2026-04-20 14:37 19.24482 73.36911 31765 ft 457 kts 349°
2026-04-20 14:37 19.27637 73.36555 32272 ft 457 kts 348°
2026-04-20 14:37 19.30807 73.36203 32712 ft 459 kts 348°
2026-04-20 14:37 19.33978 73.35855 32847 ft 458 kts 348°
2026-04-20 14:38 19.40312 73.35163 32852 ft 457 kts 348°
2026-04-20 14:38 19.46638 73.34470 32849 ft 457 kts 348°
2026-04-20 14:39 19.52957 73.33776 32851 ft 456 kts 348°
2026-04-20 14:39 19.59271 73.33081 32846 ft 456 kts 348°
2026-04-20 14:40 19.65577 73.32385 32857 ft 455 kts 349°
2026-04-20 14:40 19.71873 73.31691 32855 ft 454 kts 349°
2026-04-20 14:41 19.78153 73.30999 32864 ft 453 kts 349°
2026-04-20 14:41 19.84424 73.30307 32870 ft 453 kts 349°
2026-04-20 14:42 19.90685 73.29615 32870 ft 452 kts 349°
2026-04-20 14:42 19.96936 73.28924 32874 ft 451 kts 349°
2026-04-20 14:43 20.03136 73.28238 32874 ft 451 kts 349°
2026-04-20 14:43 20.09366 73.27547 32877 ft 450 kts 349°
2026-04-20 14:44 20.15597 73.26857 32874 ft 450 kts 349°
2026-04-20 14:44 20.21815 73.26167 32874 ft 449 kts 349°
2026-04-20 14:45 20.27739 73.24521 32869 ft 435 kts 329°
2026-04-20 14:45 20.32953 73.21344 32869 ft 430 kts 322°
2026-04-20 14:46 20.38025 73.17941 32867 ft 431 kts 323°
2026-04-20 14:46 20.43159 73.14650 32857 ft 431 kts 324°
2026-04-20 14:47 20.48349 73.11448 32852 ft 431 kts 325°
2026-04-20 14:48 20.56159 73.06686 32841 ft 430 kts 325°
2026-04-20 14:48 20.61350 73.03513 32842 ft 430 kts 325°
2026-04-20 14:49 20.66528 73.00341 32841 ft 429 kts 325°
2026-04-20 14:49 20.71701 72.97167 32835 ft 428 kts 325°
2026-04-20 14:50 20.77069 72.94409 32838 ft 437 kts 344°
2026-04-20 14:50 20.80103 72.94068 32830 ft 442 kts 355°
2026-04-20 14:50 20.83190 72.94189 32828 ft 445 kts
2026-04-20 14:51 20.89360 72.94813 32824 ft 445 kts
2026-04-20 14:51 20.95532 72.95311 32822 ft 444 kts 360°
2026-04-20 14:52 21.01692 72.95610 32815 ft 443 kts 358°
2026-04-20 14:52 21.07801 72.95828 32810 ft 442 kts 358°
2026-04-20 14:53 21.13943 72.96038 32809 ft 441 kts 358°
2026-04-20 14:53 21.20077 72.96278 32810 ft 441 kts 359°
2026-04-20 14:54 21.26205 72.96593 32811 ft 441 kts 359°
2026-04-20 14:54 21.32326 72.96913 32813 ft 440 kts 359°
2026-04-20 14:55 21.37407 72.97177 32814 ft 440 kts 359°
2026-04-20 14:55 21.44541 72.97548 32804 ft 434 kts 359°
2026-04-20 14:55 21.47499 72.97705 32734 ft 418 kts 359°
2026-04-20 14:56 21.50352 72.97856 32613 ft 404 kts 359°
2026-04-20 14:56 21.53121 72.98001 32455 ft 393 kts 359°
2026-04-20 14:56 21.55820 72.98142 32253 ft 383 kts 359°
2026-04-20 14:56 21.58444 72.98308 32026 ft 374 kts 358°
2026-04-20 14:57 21.60958 72.97943 31751 ft 359 kts 340°
2026-04-20 14:57 21.63314 72.97157 31492 ft 351 kts 338°
2026-04-20 14:57 21.65626 72.96358 31214 ft 346 kts 339°
2026-04-20 14:57 21.67911 72.95604 30933 ft 341 kts 340°
2026-04-20 14:58 21.69414 72.95126 30738 ft 339 kts 340°
2026-04-20 14:58 21.71666 72.94431 30445 ft 335 kts 341°
2026-04-20 14:58 21.74647 72.93532 30044 ft 330 kts 341°
2026-04-20 14:58 21.76106 72.93097 29842 ft 328 kts 342°
2026-04-20 14:59 21.79032 72.92231 29368 ft 324 kts 342°
2026-04-20 14:59 21.81201 72.91592 29019 ft 322 kts 342°
2026-04-20 14:59 21.83337 72.90963 28807 ft 314 kts 342°
2026-04-20 14:59 21.85407 72.90356 28786 ft 302 kts 342°
2026-04-20 15:00 21.87392 72.89773 28792 ft 298 kts 341°
2026-04-20 15:00 21.89415 72.89177 28796 ft 298 kts 342°
2026-04-20 15:00 21.91388 72.88596 28744 ft 297 kts 342°
2026-04-20 15:00 21.92731 72.88200 28527 ft 296 kts 342°
2026-04-20 15:01 21.95356 72.87427 28091 ft 294 kts 342°
2026-04-20 15:01 21.96687 72.87036 27875 ft 293 kts 342°
2026-04-20 15:01 21.99282 72.86272 27460 ft 291 kts 342°